Wind_Speed
38 40 42 44 46 47 49 51 53 55 57 58 60 61 63 65 67 69 71 72 74 76 77 78 80 81 83 84 86 87 88 89 90 92 93 94 96 97 98 99 100 101 101 102 102 102 102 102 101 101 100 100 99 99 99 99 98 98 98 97 97 97 99 98 95 96 97 94 92 94 93 93 93 93 93 93 92 91 91 91 91 90 90 90 90 90 89 88
33 34 36 38 39 41 43 45 46 48 50 51 53 55 57 59 61 63 64 66 68 70 71 73 74 76 78 79 81 82 84 85 86 87 88 90 91 92 93 95 96 96 97 98 98 99 98 98 99 98 98 98 98 98 97 97 97 97 97 96 96 98 97 94 93 95 95 93 92 92 92 92 92 91 91 91 90 90 90 90 89 88 88 89 88 88 87 87
29 30 31 33 34 36 37 39 40 42 43 45 46 48 50 52 54 56 57 59 61 62 64 66 67 69 71 73 75 76 78 79 81 82 84 85 86 88 89 91 92 92 93 94 94 95 95 95 95 95 95 95 96 96 96 96 95 95 95 95 96 96 93 92 93 93 93 91 91 90 90 90 89 89 90 89 88 88 89 88 87 86 86 87 87 86 85 85
26 27 28 29 31 32 33 34 35 37 38 39 41 43 44 46 47 49 51 52 54 55 57 58 60 61 63 65 67 69 70 72 74 75 77 79 81 82 84 85 87 88 89 89 90 91 91 92 92 92 93 93 93 93 93 93 93 93 93 93 93 91 90 91 91 90 90 89 89 88 88 87 87 87 87 87 86 88 87 84 84 85 85 85 84 84 83 82
25 26 27 27 28 29 30 30 32 33 34 35 36 38 39 41 42 43 45 46 47 49 50 51 52 54 55 57 58 60 61 63 65 67 69 71 73 75 77 79 80 82 83 84 85 86 87 88 88 89 89 90 90 90 90 90 90 90 90 89 88 88 88 88 87 87 87 86 86 86 85 84 84 84 84 84 85 85 82 81 83 83 81 82 81 81 80 78
25 25 26 26 26 27 27 28 29 29 31 32 33 34 35 36 38 39 40 41 42 43 44 45 46 47 48 49 51 52 54 55 57 59 61 63 65 67 69 71 73 74 76 77 79 80 81 82 83 84 85 85 86 86 86 86 86 86 86 85 84 84 83 82 83 83 83 82 82 81 80 80 81 81 80 81 81 79 78 80 80 79 78 78 78 77 76 74
26 26 26 26 26 26 26 27 27 28 29 30 30 31 32 33 34 35 36 37 37 38 39 40 40 41 42 43 45 46 47 49 51 53 55 57 59 61 62 64 66 67 69 70 72 73 75 76 77 78 79 80 80 80 81 81 81 81 80 80 80 79 78 78 78 78 78 78 77 76 76 76 76 76 76 77 76 75 76 76 76 75 74 75 74 73 72 70
28 28 28 28 28 28 28 27 27 28 28 29 29 30 30 31 31 32 32 33 33 33 34 35 35 36 37 38 39 40 42 43 45 47 49 51 53 55 56 57 59 60 62 63 65 66 67 69 70 71 72 73 74 74 75 75 75 75 74 74 74 73 73 73 73 72 73 72 71 72 72 71 71 71 72 73 71 72 72 72 72 71 71 71 70 69 68 67
29 30 30 30 30 29 29 29 29 29 29 29 29 29 30 30 30 30 30 29 29 29 30 30 30 31 32 33 34 35 36 38 39 41 43 45 47 48 50 51 53 54 55 57 58 59 60 62 63 64 65 66 67 67 68 69 68 68 67 68 69 68 68 68 68 67 67 67 67 68 68 68 68 68 69 68 68 69 69 69 68 67 67 67 66 65 64 63
31 31 32 32 32 32 31 31 31 31 31 30 30 30 30 30 29 29 28 28 27 26 26 26 26 27 27 28 28 29 31 32 33 35 36 38 40 41 43 45 46 48 49 51 52 53 54 55 56 57 58 59 59 60 62 61 61 61 61 62 62 62 62 62 62 62 63 63 64 65 64 65 65 66 66 64 64 66 66 66 65 64 64 64 63 62 61 60
33 33 34 34 34 34 34 33 33 33 33 32 32 31 31 30 29 29 28 27 26 24 24 23 23 23 23 24 24 25 26 27 28 29 30 32 33 34 36 38 40 42 43 45 46 48 49 50 51 52 52 53 54 54 55 55 55 56 56 56 57 57 57 58 58 59 60 60 61 61 61 62 62 63 62 59 62 64 63 62 62 62 61 60 59 58 58 57
34 35 35 35 35 35 35 35 34 34 34 34 34 33 32 31 30 29 28 27 26 24 23 22 21 21 21 21 21 22 22 23 24 25 26 27 28 29 31 32 34 36 38 39 41 42 43 45 46 47 47 48 48 49 50 50 51 51 51 52 52 53 53 54 54 55 56 56 57 58 57 58 59 60 57 55 60 61 59 60 59 58 58 57 56 55 55 53
35 35 35 36 36 36 36 35 35 35 36 36 36 35 34 33 32 30 29 28 26 26 25 24 23 22 21 20 20 20 19 19 20 21 22 23 24 26 27 28 29 31 33 34 36 37 38 40 41 42 43 44 43 45 46 46 46 47 48 48 48 49 50 50 50 52 52 52 54 54 54 55 56 56 52 53 57 57 56 56 55 55 54 53 53 52 51 49
35 35 35 36 36 36 36 36 36 36 36 37 37 37 36 35 33 32 31 29 28 27 27 26 25 24 23 22 20 19 18 18 19 19 20 20 21 23 24 25 26 28 29 30 32 33 34 36 37 38 39 39 40 41 42 42 43 43 44 45 45 47 48 46 47 49 49 49 51 51 51 54 54 51 50 51 53 53 53 52 51 51 50 49 49 48 47 46
36 36 36 36 36 36 36 36 36 37 37 38 38 38 37 36 35 34 33 31 30 29 28 28 27 26 25 25 23 21 20 19 19 19 19 19 20 21 22 23 24 26 27 28 29 30 31 32 33 34 35 36 36 37 38 39 40 40 41 43 42 45 45 42 44 47 46 47 49 49 49 53 50 45 48 50 49 50 49 48 47 46 46 46 45 45 45 44
35 35 36 36 37 37 37 37 37 37 38 38 39 39 38 38 37 36 34 33 32 31 31 30 29 28 28 28 26 25 23 22 21 21 20 20 21 21 22 23 24 25 26 27 28 29 29 30 30 31 31 31 32 33 34 35 37 37 39 41 40 43 44 40 43 47 45 46 49 49 49 52 48 41 46 50 46 46 46 44 44 43 44 44 43 43 43 42
31 32 33 34 35 36 37 37 37 38 38 38 39 39 39 38 38 37 36 35 34 34 33 32 32 30 30 30 29 28 27 26 25 24 23 23 23 23 23 24 24 25 26 26 27 28 29 30 30 31 31 31 32 33 33 35 37 36 38 40 39 43 44 41 43 45 45 46 48 48 48 50 46 39 45 49 44 43 44 42 42 43 44 44 43 43 43 42
28 29 29 30 31 32 34 35 36 37 38 38 39 39 39 39 39 38 38 37 36 36 35 35 34 33 32 33 32 31 31 30 29 28 27 26 26 26 25 26 26 26 27 27 27 28 29 30 31 33 34 35 37 38 40 41 39 38 40 42 42 43 45 44 41 43 47 47 46 47 47 48 46 40 43 46 42 41 43 42 42 44 44 43 43 44 43 41
26 27 27 28 28 29 30 31 33 34 36 37 38 38 39 39 39 38 38 38 38 37 37 37 36 35 35 35 34 34 33 33 33 32 31 31 30 30 29 29 29 29 29 29 29 30 31 32 33 34 35 36 37 40 42 42 41 42 43 44 44 43 46 45 38 40 49 48 45 46 47 47 45 41 42 43 42 41 43 44 43 44 44 44 45 45 43 41
25 26 26 27 27 27 28 28 29 30 32 34 36 37 38 39 39 39 39 38 38 38 38 38 38 37 37 37 37 36 36 35 35 35 35 35 34 34 34 33 33 33 33 32 32 34 34 36 37 36 35 36 39 41 40 40 41 42 43 44 45 43 46 45 37 41 50 47 45 46 45 46 46 43 41 41 42 43 45 46 44 44 45 46 46 45 44 43
25 25 25 26 26 27 27 27 28 28 29 31 33 35 36 38 39 40 40 39 39 39 38 39 39 39 39 39 38 38 38 38 37 37 38 38 38 38 38 38 38 38 37 37 37 37 37 39 39 38 38 39 41 41 40 41 42 43 44 45 46 46 47 44 40 45 49 47 47 46 44 46 47 44 41 40 42 45 47 46 44 45 45 46 46 46 45 44
25 25 25 26 26 27 27 28 28 29 29 30 31 32 34 36 37 39 40 40 40 40 39 40 40 40 40 39 40 40 40 39 39 40 40 40 40 40 41 41 41 41 41 42 41 40 41 42 40 39 42 42 42 43 42 43 44 46 47 47 48 48 47 46 44 46 48 48 49 46 45 48 49 46 43 42 43 46 48 46 45 46 45 46 47 47 46 45
26 27 27 27 27 27 28 28 29 30 30 30 31 32 33 34 36 37 39 40 41 40 40 41 41 41 41 41 41 41 41 41 41 41 42 42 42 42 42 43 43 43 44 44 43 44 45 43 41 42 44 43 43 45 45 46 47 48 48 48 50 49 47 49 46 45 49 49 49 48 48 51 51 48 46 45 45 47 49 48 47 47 47 48 48 47 47 45
28 28 28 28 28 28 28 29 29 30 31 31 32 33 33 34 35 36 37 38 39 40 40 41 42 42 42 42 42 42 43 43 43 43 43 43 43 43 43 44 44 45 45 45 45 47 46 44 44 45 45 45 45 46 47 49 49 50 50 50 52 50 49 52 47 47 52 50 50 49 49 52 52 49 48 48 48 49 49 49 49 49 49 49 49 48 48 47
30 30 30 30 30 30 30 30 30 31 31 32 32 33 34 35 35 36 37 37 39 40 40 41 42 42 43 42 43 44 45 45 44 45 45 45 45 45 45 45 46 46 46 47 48 49 47 45 47 47 46 47 48 49 49 50 51 51 51 52 53 51 51 53 50 51 54 51 51 50 50 53 51 50 52 50 50 50 50 50 50 50 51 51 50 50 49 48
32 32 32 32 33 32 32 32 32 32 32 33 33 34 34 35 36 36 37 38 39 40 40 41 41 42 43 43 44 45 45 46 46 47 47 47 47 47 47 48 48 48 47 49 51 51 48 48 49 49 48 49 50 51 51 51 54 53 52 53 55 53 52 54 52 53 55 53 52 51 53 54 51 52 54 51 51 52 51 52 52 52 52 52 52 52 51 51
34 34 34 34 35 35 35 35 35 35 35 35 35 35 35 35 36 36 37 39 40 40 40 41 41 42 43 44 45 45 46 47 47 48 48 48 49 49 49 49 51 50 49 51 52 52 51 50 51 51 51 51 52 52 52 53 55 55 54 55 56 55 54 55 55 56 56 55 54 55 56 55 54 56 55 52 54 54 53 54 53 54 54 54 54 54 53 53
37 37 37 37 37 37 37 37 38 38 38 38 38 38 38 38 38 38 39 40 41 40 40 41 41 42 43 44 45 45 46 47 47 48 48 49 50 50 51 51 52 52 52 53 53 53 53 53 53 53 53 54 54 54 55 56 56 56 56 56 56 57 57 57 58 58 58 57 57 58 58 58 59 60 56 55 57 56 55 55 55 55 56 56 56 56 55 55
40 39 39 39 39 40 40 40 40 40 41 41 41 41 41 41 41 42 43 43 42 42 42 42 42 43 44 44 45 46 47 47 47 48 49 49 50 51 52 52 53 53 54 55 55 54 55 55 54 55 55 55 56 57 58 58 58 58 58 57 57 58 58 59 59 60 60 59 59 61 60 60 62 63 60 58 59 59 58 57 57 57 57 57 58 58 58 57
42 42 42 42 42 42 42 42 43 43 43 43 44 44 44 44 45 46 46 46 45 46 45 45 45 45 46 46 47 48 48 48 49 49 49 50 51 51 52 52 53 54 55 56 56 56 56 57 57 57 57 57 58 59 59 59 59 60 60 59 59 59 60 61 61 62 62 60 62 64 62 62 64 65 64 61 59 61 62 60 59 59 60 60 59 60 60 60
43 43 43 43 43 44 44 44 45 45 45 45 46 46 46 47 48 48 49 49 49 49 49 49 48 48 49 49 51 51 51 51 51 51 52 52 52 52 53 53 54 54 55 56 56 56 57 58 58 59 59 59 60 60 61 61 61 61 61 61 61 62 63 64 64 65 64 63 65 65 64 66 66 66 68 63 59 63 65 63 61 61 62 62 62 62 62 62
44 44 44 45 45 45 45 46 46 46 47 47 47 48 48 49 50 50 51 51 51 52 52 52 52 51 52 52 53 54 54 54 55 55 55 55 55 55 56 56 56 56 57 58 57 57 58 58 59 60 60 60 61 61 61 62 63 63 63 62 63 65 66 66 66 67 66 66 67 67 68 68 66 67 69 65 62 65 67 66 64 64 64 65 64 64 65 64
44 45 45 46 46 46 46 47 47 47 48 48 48 48 49 50 50 51 52 53 53 53 53 54 54 54 55 55 56 58 57 57 59 59 58 58 58 59 60 61 60 60 61 61 59 58 59 60 61 62 61 61 61 62 61 62 64 64 63 63 64 66 68 67 68 69 69 70 71 70 70 68 65 68 70 68 66 66 67 68 67 66 67 67 67 67 67 67
44 45 45 46 46 46 46 47 47 47 48 48 48 49 50 50 50 51 52 53 54 54 54 54 55 56 56 56 58 59 59 59 61 62 61 61 61 62 65 65 64 63 64 64 63 62 62 63 65 65 64 63 63 63 62 63 64 64 64 65 65 67 69 69 69 71 71 72 72 71 70 67 66 69 70 70 70 68 68 70 70 70 70 69 69 70 70 70
45 46 46 47 47 47 47 48 48 48 49 49 49 50 50 51 51 52 52 53 54 54 55 55 56 56 57 57 59 61 60 60 62 63 62 62 64 65 67 68 67 66 66 66 66 67 66 67 70 69 67 68 67 66 65 64 65 67 67 67 67 68 72 72 71 72 73 73 72 70 69 67 67 69 69 70 71 71 71 72 73 73 72 72 72 72 72 72
45 45 45 46 46 46 46 45 46 46 47 47 48 48 49 49 50 51 52 52 53 54 55 55 55 57 57 57 59 61 61 61 62 63 63 63 65 67 68 69 69 68 68 68 69 70 69 71 73 72 71 73 72 69 68 67 68 70 70 70 70 72 74 74 73 73 75 75 71 70 69 67 68 69 68 70 71 73 74 73 74 74 73 73 73 73 73 73
42 41 41 42 42 42 41 41 42 42 43 43 44 45 46 46 47 48 49 49 50 51 52 53 53 55 55 55 58 59 60 62 62 62 64 65 66 68 68 68 69 69 69 69 71 72 72 72 75 75 74 76 75 73 72 72 71 73 73 74 76 76 75 76 77 76 77 77 74 72 71 68 68 68 69 72 72 74 76 75 73 74 73 73 73 73 73 73
39 39 39 39 39 39 39 39 39 39 39 40 40 41 42 42 43 44 44 45 46 46 47 49 49 50 52 53 54 55 57 60 60 59 63 65 65 66 68 69 69 70 70 70 72 74 73 73 75 76 76 77 77 75 75 75 75 76 78 79 79 79 78 80 81 80 80 80 78 75 74 71 69 69 71 74 75 75 77 77 75 74 74 74 73 73 73 73
38 37 36 36 36 36 36 35 34 34 34 34 35 36 37 37 38 39 40 40 41 42 43 45 46 47 49 50 51 52 53 55 57 57 59 62 62 63 66 67 67 68 70 71 73 75 75 74 75 76 77 78 77 76 77 77 78 80 80 81 81 81 82 83 85 85 84 83 82 80 78 75 72 72 74 77 78 78 79 79 78 77 76 75 74 73 73 73
34 32 31 31 31 31 31 31 31 31 32 32 32 33 34 35 35 37 38 38 39 41 42 43 44 45 47 48 49 51 51 52 55 56 56 59 59 60 62 64 64 66 67 69 72 74 74 74 74 74 77 77 77 77 78 79 81 82 82 82 82 83 84 86 87 87 87 87 86 85 82 77 75 77 78 79 80 81 82 81 81 80 79 78 76 76 75 75
29 28 28 29 28 29 29 29 30 31 31 31 32 32 33 34 35 36 38 39 39 41 42 43 44 45 47 48 49 50 51 52 54 55 56 57 58 58 58 61 64 66 65 67 70 72 72 72 71 71 74 75 75 77 78 79 81 84 84 84 84 85 87 88 88 87 88 89 89 88 84 79 77 81 83 82 82 83 84 85 84 83 82 82 80 79 78 78
27 28 29 29 29 30 30 30 30 31 31 32 32 33 34 35 36 37 39 40 41 42 43 44 46 47 48 49 51 52 52 53 54 56 57 58 59 58 56 59 64 66 65 66 69 70 70 72 71 69 71 72 73 74 76 78 80 83 84 84 85 87 88 89 89 88 89 90 89 90 88 82 80 84 85 85 84 84 85 88 88 87 85 85 84 83 83 82
29 29 30 30 30 30 30 30 31 31 32 33 34 35 36 37 38 40 41 42 43 44 45 46 47 49 49 50 52 53 53 54 55 57 58 59 60 58 57 60 63 65 66 65 67 69 69 71 71 69 69 70 71 72 74 76 79 81 83 83 84 85 86 88 90 90 90 90 89 91 91 86 83 85 87 86 85 84 87 89 90 90 89 87 88 88 88 86
30 30 30 30 31 31 32 32 32 33 35 36 37 38 39 40 41 42 42 44 45 45 47 48 48 50 50 51 53 54 54 55 55 57 59 60 60 59 59 60 63 66 66 64 66 69 68 69 70 69 69 69 70 72 74 77 80 81 81 82 82 83 84 85 87 88 90 89 87 91 92 87 85 87 87 88 88 87 88 89 89 92 92 90 90 91 91 90
30 30 30 31 32 33 34 34 35 35 37 38 40 41 42 42 44 44 44 45 46 47 48 48 49 50 51 52 53 54 55 55 56 57 59 60 61 60 60 60 63 66 65 63 66 68 68 68 69 68 68 67 68 72 75 79 82 82 80 80 81 82 83 84 86 87 88 86 86 91 91 87 85 86 86 87 89 88 88 89 90 91 93 92 93 92 92 93
31 31 32 33 34 36 37 38 38 39 39 41 42 44 45 45 46 47 47 47 48 49 49 49 50 51 52 53 53 55 56 56 56 56 58 60 61 61 60 59 63 66 64 64 66 67 67 67 68 68 67 66 66 70 75 79 82 81 79 79 80 81 82 84 87 87 86 86 88 90 91 88 84 84 84 85 86 86 87 88 88 89 91 94 95 94 94 95
33 34 35 36 37 38 39 41 42 42 43 44 45 47 49 48 48 48 49 49 49 50 50 50 51 52 52 53 54 55 56 56 56 56 57 59 60 61 61 59 62 64 63 64 66 66 65 65 66 67 66 64 65 68 73 78 80 80 78 78 79 80 82 85 87 86 86 89 90 89 91 91 86 82 81 82 83 83 83 84 85 85 87 90 93 94 96 96
37 38 39 39 40 41 42 43 44 46 46 47 49 50 50 51 50 50 50 51 51 52 52 52 53 53 53 54 55 55 56 56 56 56 57 59 60 61 61 60 61 62 62 63 65 64 64 64 65 66 64 63 64 66 70 74 77 77 75 75 76 78 81 84 87 87 88 91 91 89 90 91 87 81 78 79 81 82 82 82 83 82 82 85 88 90 93 94
40 41 42 42 43 44 45 45 47 48 49 50 51 51 52 52 52 52 52 52 53 54 53 53 53 54 54 56 56 56 56 56 56 58 58 59 59 60 61 61 61 62 62 62 63 64 63 62 64 65 63 60 62 65 68 72 74 73 71 70 71 75 78 82 85 87 90 91 91 90 90 89 85 81 78 78 81 84 83 81 80 80 79 81 84 85 87 90
43 44 45 45 46 47 48 49 50 51 51 52 53 53 53 54 53 54 54 54 55 55 54 54 54 55 55 56 57 57 57 57 58 59 59 59 60 61 61 61 61 61 61 61 62 63 62 61 62 64 62 57 59 65 69 70 73 71 67 65 68 73 78 81 83 86 88 89 89 90 90 85 80 80 79 77 79 83 82 79 78 78 77 78 81 83 84 85
46 47 47 48 49 50 51 52 53 54 53 53 54 54 54 55 55 56 56 56 56 56 55 55 56 56 56 57 57 56 57 58 59 59 59 60 60 61 61 60 60 60 60 60 61 62 62 61 61 64 62 56 58 67 70 71 72 68 61 63 70 77 80 81 82 83 84 85 86 87 86 81 76 76 77 75 75 78 79 77 77 78 77 77 79 81 83 83
49 49 50 51 51 52 54 54 54 55 55 55 56 56 56 56 57 57 58 58 58 58 57 57 57 57 57 58 57 56 57 59 60 59 60 61 60 60 60 59 59 59 59 60 61 60 62 61 61 65 64 57 58 68 72 72 69 61 58 67 75 79 80 80 80 80 81 82 83 82 80 76 72 72 73 72 71 72 74 74 74 75 75 76 78 78 80 80
Wind_Direction
249 249 250 250 250 251 251 252 253 253 254 254 254 254 254 255 255 255 255 256 256 256 256 256 256 256 256 256 256 256 256 256 256 256 256 256 256 256 256 256 256 257 257 257 258 258 258 259 259 259 259 259 259 260 260 260 260 260 260 261 261 261 262 263 264 265 265 266 265 266 267 267 267 268 268 269 269 269 270 270 270 270 271 271 272 272 273 273
248 249 249 250 250 251 251 252 252 253 254 254 254 255 255 255 256 256 256 257 257 257 257 257 257 257 256 256 256 256 256 256 256 255 255 255 256 255 255 256 256 256 256 256 257 257 257 258 258 258 258 258 258 259 259 259 259 259 260 260 260 261 262 263 263 263 264 264 265 265 266 266 267 267 268 268 268 269 269 269 270 270 271 271 271 272 272 273
246 247 248 249 249 250 250 251 252 252 253 254 254 255 255 256 256 257 257 258 258 258 258 258 258 258 258 257 257 256 256 256 255 255 255 255 255 255 255 255 255 255 255 255 256 256 256 256 257 257 257 257 257 257 258 258 258 259 259 259 260 261 262 262 261 262 263 264 264 264 265 265 266 266 267 267 267 267 268 269 270 270 270 270 271 271 272 273
245 246 247 248 248 249 249 250 251 252 253 253 254 255 256 257 257 258 259 259 260 260 260 260 260 259 259 258 258 257 257 256 256 255 255 254 254 254 254 254 254 254 254 254 254 255 255 255 255 255 256 256 256 257 257 257 258 258 258 258 260 260 260 260 261 262 262 262 263 263 264 264 265 265 266 266 266 266 268 269 268 268 269 270 271 271 272 272
246 247 248 249 249 249 250 251 251 252 253 253 254 255 256 257 258 259 260 260 261 261 261 261 261 261 260 260 259 258 258 257 256 255 254 254 253 253 253 253 253 253 253 253 253 253 254 254 254 254 255 255 255 256 256 256 257 257 258 258 259 259 259 260 260 260 261 261 262 262 263 263 264 264 265 265 265 267 268 267 267 268 269 270 270 271 271 272
249 250 250 251 251 251 252 253 253 254 254 255 255 256 257 258 259 260 261 261 262 262 263 262 262 262 261 260 260 259 258 257 256 255 254 253 253 252 252 252 252 252 252 252 252 252 252 253 253 253 254 254 254 255 255 256 256 256 257 257 257 258 258 259 259 259 260 260 261 262 262 262 262 263 264 264 265 266 266 266 267 268 268 269 270 270 270 271
251 252 252 252 253 253 254 254 255 256 255 256 256 256 257 258 259 259 261 262 263 263 263 263 263 262 261 260 259 258 257 256 255 254 253 252 252 251 251 251 251 251 251 251 251 251 252 252 252 252 253 253 254 254 254 255 255 255 256 256 257 257 257 258 258 259 259 260 260 261 261 261 262 263 263 263 264 265 264 265 267 267 267 268 268 269 269 269
252 253 252 252 253 254 255 255 256 256 255 255 255 256 256 256 257 259 260 261 263 264 264 264 263 262 261 260 259 258 256 255 254 254 253 252 251 251 250 250 250 250 250 250 250 250 251 251 251 252 252 253 253 253 254 254 254 255 255 256 256 256 256 257 258 258 259 259 259 259 260 260 260 261 261 262 263 263 264 265 265 265 266 266 267 267 267 267
252 253 253 253 253 254 255 256 256 256 255 254 254 255 255 256 256 258 259 261 263 264 265 265 264 263 262 261 260 258 257 256 255 254 253 252 252 251 251 250 250 249 249 249 249 249 250 250 250 251 251 251 252 252 253 253 254 254 255 255 255 255 256 256 256 257 257 257 257 258 258 258 258 259 260 261 262 262 262 263 263 264 264 265 265 266 266 266
253 253 254 254 254 255 255 255 255 256 255 255 254 254 255 256 257 258 259 260 262 264 265 266 266 265 264 263 261 260 258 257 256 255 254 253 252 252 251 250 249 249 248 248 248 248 248 248 249 249 249 250 251 251 252 252 253 253 253 253 254 254 254 254 255 255 255 255 256 256 256 257 257 258 258 260 260 260 261 261 262 262 263 263 264 264 264 264
253 254 254 255 255 255 255 254 254 255 255 255 255 255 255 256 257 257 258 259 261 262 265 267 268 269 268 266 264 262 261 259 257 256 255 254 252 251 250 250 249 248 248 247 247 247 247 247 247 247 248 248 248 249 250 251 250 251 251 251 252 252 252 252 252 252 253 253 254 255 255 256 256 257 257 259 259 259 260 261 261 261 261 262 262 262 261 261
254 254 255 255 256 256 255 255 254 254 255 255 255 255 255 256 256 257 257 258 259 261 263 266 268 270 270 270 269 267 265 263 261 258 256 254 253 251 250 249 248 248 247 247 247 246 246 246 246 246 246 247 247 248 248 248 248 249 249 249 250 250 250 250 250 251 252 252 253 254 254 255 255 256 257 258 258 259 260 260 260 260 260 260 259 259 259 259
254 255 255 255 256 256 256 255 254 254 254 255 255 255 255 255 256 257 257 257 258 259 261 263 265 267 269 271 271 270 269 267 265 262 259 257 255 253 251 250 249 248 247 247 247 246 246 246 247 246 246 247 247 247 247 248 248 248 248 248 248 249 248 249 250 250 251 251 253 253 254 254 254 256 257 256 258 259 259 259 259 259 258 258 258 257 257 257
255 255 255 255 256 256 256 255 254 254 253 254 254 255 255 256 256 257 257 258 258 258 259 260 262 263 266 268 269 269 267 266 266 264 263 261 259 256 253 251 250 249 248 248 247 247 247 247 247 247 248 247 247 248 248 248 248 248 249 249 248 249 249 249 250 250 250 251 252 252 252 253 254 256 256 255 256 258 257 258 258 258 257 256 256 256 256 256
256 256 255 255 255 255 255 255 254 254 253 253 253 254 255 256 256 257 257 258 259 259 259 259 259 260 262 263 264 265 263 261 260 260 259 258 257 257 255 253 251 250 249 248 248 248 249 249 250 250 249 249 248 249 249 249 249 249 250 250 249 250 249 248 250 249 249 249 250 250 250 251 252 253 254 253 253 255 255 256 256 256 256 256 255 255 255 255
258 257 257 256 255 255 254 254 253 253 253 252 252 252 253 254 255 255 256 257 257 258 258 258 258 258 258 259 259 260 259 257 255 254 253 252 250 250 252 252 251 250 250 249 248 247 247 247 249 251 252 252 252 252 252 252 252 250 250 250 250 251 249 245 247 249 247 247 249 248 248 251 251 248 250 252 250 252 253 253 254 254 255 255 255 256 256 255
260 259 259 258 256 255 254 254 253 252 252 252 252 251 251 252 252 253 254 254 255 255 256 256 256 256 256 256 255 255 255 255 253 252 251 250 249 247 247 247 247 247 247 248 248 248 247 246 244 245 246 247 248 249 250 250 250 250 251 250 248 249 249 243 243 249 248 246 247 248 248 250 250 243 245 250 248 250 252 251 253 254 254 255 256 256 256 255
261 261 260 260 258 257 255 254 253 252 251 251 251 251 251 251 251 251 252 252 253 253 254 254 255 254 253 253 253 252 252 252 252 251 249 249 249 248 248 247 246 245 244 243 244 245 246 246 245 244 243 242 242 242 243 244 245 247 248 248 246 247 249 245 241 247 250 246 245 247 247 248 248 241 241 248 249 248 251 251 251 253 254 256 257 256 256 256
262 261 261 261 260 259 257 255 254 253 252 251 250 250 250 250 250 250 251 251 252 252 253 254 254 253 252 252 251 251 250 250 250 249 248 248 247 248 248 249 248 247 246 244 243 242 242 244 245 244 244 244 245 244 244 245 245 245 245 246 246 245 248 247 240 243 249 248 245 246 246 246 246 240 238 245 249 249 251 252 251 253 254 255 256 256 257 257
262 262 261 261 260 260 259 258 257 255 254 253 251 251 250 250 250 250 250 251 251 252 252 253 253 253 252 252 252 251 250 249 249 249 248 247 246 246 247 248 249 250 249 247 246 244 243 243 244 243 244 244 246 246 247 248 247 246 246 246 247 245 246 247 241 242 248 249 247 245 245 246 246 242 237 242 249 251 252 253 253 253 255 256 256 257 257 257
261 261 261 261 261 261 261 260 260 259 257 256 254 253 251 251 251 250 250 251 251 251 252 252 253 252 252 252 252 252 251 250 250 249 249 248 246 245 245 245 247 248 249 249 248 246 245 244 243 243 244 243 244 246 245 246 246 246 246 246 248 247 247 247 243 244 247 248 248 245 244 246 247 245 240 241 248 253 253 253 254 255 255 257 257 257 257 257
260 261 261 261 261 261 261 261 261 260 260 258 257 256 254 253 252 252 252 252 252 252 252 252 252 252 252 252 252 252 252 251 251 250 249 249 248 247 247 246 246 247 248 249 248 248 247 245 244 244 245 244 245 246 244 245 245 246 246 247 249 248 248 248 244 246 249 248 248 246 246 248 248 248 245 243 246 252 254 253 254 256 256 257 257 257 256 256
260 261 261 261 261 261 261 261 261 261 260 260 259 258 257 255 254 254 254 254 254 253 253 253 253 252 252 252 252 252 252 251 251 251 251 250 250 250 249 249 249 248 248 249 248 249 249 248 247 247 247 246 246 247 247 247 246 246 246 247 249 248 249 249 245 246 250 250 250 248 247 250 250 249 249 247 246 250 254 254 254 255 256 256 257 257 257 256
260 260 261 261 261 261 261 261 261 261 261 260 260 259 259 258 257 256 256 255 255 255 255 255 254 254 253 253 253 253 252 252 252 252 252 252 252 252 251 251 251 250 250 250 250 249 249 249 249 248 248 248 248 248 249 249 249 249 249 249 249 248 249 250 246 248 250 249 250 249 248 250 250 250 250 249 249 249 251 254 254 254 255 256 257 258 258 257
260 260 261 261 261 261 261 261 261 261 261 261 261 260 260 260 259 259 258 258 257 256 256 256 256 256 255 255 254 254 254 253 253 253 254 254 253 253 253 252 252 252 252 252 252 251 250 250 250 249 250 250 249 249 250 251 251 251 251 251 252 250 250 251 248 248 251 249 250 250 249 249 249 251 251 249 251 251 251 253 254 254 255 256 256 257 257 257
260 260 261 261 261 261 261 261 260 260 260 260 261 261 261 260 260 260 260 260 259 258 258 258 258 258 257 256 256 255 255 255 255 255 255 255 255 254 254 253 253 252 252 253 253 253 252 251 251 250 250 250 251 251 251 252 253 251 251 252 254 253 252 253 251 249 250 250 250 250 251 250 249 251 252 252 252 253 253 253 254 255 256 257 257 257 257 257
260 261 261 261 261 261 262 261 261 260 260 260 260 260 261 261 260 260 260 259 260 260 260 259 259 259 259 258 258 257 257 257 257 257 257 257 256 256 256 255 255 254 253 253 253 254 253 251 251 251 250 250 251 251 251 252 253 253 252 252 254 254 253 254 253 252 251 251 251 252 252 252 251 251 252 254 255 254 254 254 254 255 256 256 257 258 258 257
261 261 262 262 263 263 263 263 263 262 262 261 261 261 261 261 261 260 259 259 259 260 260 260 259 260 260 259 259 259 259 258 258 258 258 258 257 257 257 257 257 257 256 255 255 255 255 253 253 252 251 250 251 251 251 251 252 253 252 252 253 254 254 254 254 254 253 252 252 253 253 254 254 253 252 253 256 256 255 255 255 255 256 256 257 257 258 258
262 263 263 264 264 265 265 265 265 264 264 264 263 263 262 262 262 261 260 260 260 260 259 259 259 259 259 259 260 260 260 260 259 259 259 258 258 258 258 258 258 258 257 257 257 256 257 256 255 254 254 253 252 252 251 251 252 252 252 252 253 254 255 255 255 255 254 253 254 253 253 255 256 255 253 252 255 256 256 255 255 256 256 256 257 257 258 258
264 265 265 266 266 266 266 266 266 265 265 265 265 265 265 264 263 263 262 262 262 261 260 260 259 259 259 259 259 259 259 260 259 259 259 259 259 259 259 259 258 258 258 258 258 258 258 258 257 256 256 255 254 254 254 253 253 253 254 253 253 254 254 254 254 254 254 253 254 254 253 254 255 256 255 252 254 257 256 256 256 257 257 257 257 258 258 259
267 267 267 267 267 267 267 267 267 267 266 266 266 266 266 265 265 265 265 264 263 262 262 261 260 260 260 260 260 260 260 260 259 259 259 259 259 259 259 259 259 259 259 258 258 258 258 258 258 257 257 256 256 256 256 255 255 255 255 255 255 255 254 254 254 254 254 253 253 254 253 252 253 255 256 254 254 257 258 257 257 258 258 258 258 258 258 259
269 269 269 269 269 269 268 268 268 268 268 267 267 267 266 266 266 266 266 265 265 264 264 263 262 261 261 261 261 261 260 260 260 260 260 260 260 260 260 259 259 259 259 258 258 259 259 259 259 258 257 257 257 256 256 257 257 256 256 256 256 256 255 255 255 255 254 253 253 253 252 252 253 255 257 256 254 255 258 258 257 257 258 258 258 258 258 258
270 270 270 270 270 269 269 269 269 268 268 268 267 267 267 266 266 266 266 266 266 265 265 265 264 263 262 262 262 262 261 261 261 261 260 260 260 260 260 259 258 259 259 259 259 259 259 259 259 258 258 257 257 257 257 257 258 258 258 257 257 257 257 256 256 255 255 254 253 252 253 254 254 256 257 257 255 254 256 258 258 257 257 258 258 258 258 259
270 270 270 270 270 270 269 269 269 268 268 268 267 267 267 266 266 266 266 267 266 266 266 265 265 265 264 263 263 263 262 262 262 262 261 261 261 261 260 260 259 259 260 260 260 260 259 260 259 258 258 258 257 257 257 257 258 259 258 257 257 257 258 256 255 255 255 255 254 255 255 255 255 256 257 259 258 256 256 257 258 257 257 257 258 258 258 259
272 271 271 271 271 271 270 270 270 269 269 268 268 267 267 266 266 266 266 266 266 266 266 265 265 265 265 264 264 263 263 263 263 263 262 262 262 261 261 261 261 260 260 261 261 260 260 260 260 259 259 258 257 257 257 257 258 258 258 258 257 257 257 257 256 257 256 256 256 257 257 257 256 256 257 258 259 258 257 257 257 257 257 257 257 258 259 259
273 273 273 272 272 271 271 270 270 270 270 269 269 268 268 267 267 267 267 267 267 267 267 266 266 266 265 265 265 265 264 264 264 264 264 263 262 262 262 263 263 262 261 261 261 261 260 260 260 260 260 260 258 258 257 257 257 258 258 258 257 256 257 258 258 257 258 258 257 257 257 257 257 258 258 258 258 259 257 256 257 257 257 258 258 258 258 259
275 274 274 274 273 273 272 272 271 271 271 270 270 269 269 269 269 269 269 269 269 269 269 268 268 268 267 266 266 267 266 265 264 265 265 264 263 264 264 264 264 263 263 262 262 262 261 261 261 261 261 261 260 259 259 258 258 259 259 258 257 257 258 258 258 258 258 258 258 257 257 256 256 258 259 258 258 259 259 258 257 258 258 258 258 259 259 259
275 275 275 275 275 274 273 273 272 272 271 271 271 271 270 270 270 270 270 270 270 270 270 270 269 269 269 268 267 268 268 268 266 265 265 265 264 265 265 264 264 264 264 263 262 262 261 261 261 262 262 262 262 262 261 260 259 259 258 258 258 259 259 259 259 258 258 258 258 257 257 256 256 256 258 259 258 258 259 260 259 258 258 259 259 259 259 260
275 275 275 274 274 274 274 273 272 271 271 271 271 272 272 272 273 272 272 272 272 272 271 271 271 271 271 271 270 269 270 271 270 268 268 268 267 267 267 266 265 265 265 264 263 263 262 261 262 263 263 263 263 263 263 262 261 259 259 259 259 260 260 260 260 259 259 259 258 257 256 256 256 256 256 257 258 258 259 260 260 259 259 258 259 259 259 260
274 274 273 273 273 274 274 274 274 273 272 272 272 272 273 274 275 275 275 274 274 274 274 274 274 274 273 273 273 272 271 271 272 271 270 270 269 268 269 269 268 266 265 265 264 263 263 262 262 262 263 264 264 264 263 263 262 262 261 260 260 260 260 260 260 260 261 260 260 258 257 256 257 257 257 257 258 259 259 259 259 260 260 259 259 259 259 259
275 276 275 275 276 276 277 277 276 276 276 276 275 276 276 277 278 279 279 279 279 279 279 278 278 278 278 277 277 277 276 275 274 274 272 271 270 269 270 271 269 267 266 266 266 265 265 264 262 262 262 263 263 263 263 263 263 263 262 261 261 260 260 260 260 260 261 261 261 261 259 257 257 258 257 257 257 259 260 260 260 259 260 260 260 259 259 258
277 278 278 278 278 278 278 278 277 277 277 277 278 278 278 278 279 279 279 280 280 280 279 279 279 279 279 279 279 278 278 278 278 277 276 275 273 272 271 271 270 269 267 266 266 266 266 266 264 263 263 263 263 263 263 263 263 263 263 262 262 261 261 261 261 260 260 261 262 263 262 259 258 258 258 257 257 258 260 261 261 260 260 260 260 259 259 258
279 279 279 279 279 278 277 277 277 277 277 276 276 276 276 276 277 277 278 279 279 279 279 279 279 279 279 279 279 280 280 280 280 279 279 277 276 275 274 272 272 271 269 268 268 267 266 266 265 264 263 263 264 264 264 264 263 263 263 263 263 263 263 262 262 262 261 261 262 262 262 261 260 259 259 258 258 258 258 259 261 261 260 260 260 260 259 258
278 279 278 277 277 277 277 276 275 275 276 276 277 276 277 277 278 278 279 280 281 280 281 281 280 280 280 280 280 281 281 281 281 281 280 279 278 277 276 274 273 272 271 271 270 269 267 267 266 265 263 263 263 264 263 263 263 263 263 264 264 264 264 264 264 264 263 262 262 261 261 260 260 259 259 259 259 258 258 259 260 261 261 261 260 260 260 260
279 279 278 278 278 277 277 277 276 276 277 278 280 280 280 281 282 282 282 282 282 282 282 282 281 281 281 280 281 281 282 281 281 281 281 281 280 279 277 276 275 274 273 272 271 270 269 269 268 267 265 264 263 263 263 262 262 262 263 264 265 265 266 266 266 265 265 265 264 263 262 260 259 259 259 258 259 258 258 259 260 261 262 262 261 261 261 261
282 282 282 281 281 281 281 281 281 281 281 281 282 283 284 284 285 285 285 284 284 283 283 282 281 281 281 281 281 282 282 282 282 281 281 281 281 280 279 278 277 276 276 274 272 271 270 269 269 268 267 266 265 264 264 264 263 263 263 263 264 266 266 267 266 266 267 267 265 265 265 263 260 260 260 259 259 259 259 259 259 260 261 263 263 262 262 262
284 284 283 283 282 282 283 283 283 283 283 284 284 284 285 286 286 286 286 285 285 284 284 283 282 282 282 282 282 283 283 283 283 283 283 283 283 283 282 280 278 278 277 275 273 272 271 270 269 268 267 267 265 264 264 265 265 265 265 265 265 266 267 267 267 267 267 266 265 265 266 266 263 262 262 262 262 261 260 260 259 258 259 261 262 263 263 262
284 284 283 283 282 281 281 282 282 283 284 284 284 285 286 286 286 286 286 286 286 285 285 285 284 284 284 283 284 284 284 285 285 285 284 284 285 285 284 282 280 278 277 276 275 274 272 272 270 269 268 267 267 266 266 266 266 266 266 266 266 266 266 267 268 268 267 266 266 265 265 266 266 265 264 265 265 263 261 259 258 257 257 258 260 261 262 262
283 283 283 282 282 282 281 281 281 282 283 284 284 285 285 286 286 286 286 286 286 286 286 286 286 286 285 285 285 285 286 286 287 286 286 287 287 287 286 284 282 280 279 278 277 276 274 273 272 271 270 269 269 268 267 266 266 266 266 266 267 267 266 266 266 266 266 265 266 266 265 265 267 267 266 265 264 263 261 260 259 259 257 258 259 259 261 262
283 282 282 282 282 282 282 282 282 282 283 283 284 285 285 286 286 286 286 286 286 286 287 287 286 286 286 286 286 287 287 288 287 287 288 289 289 288 287 286 284 282 281 280 278 277 277 275 274 273 272 271 271 269 268 267 267 266 267 269 269 267 265 264 263 264 264 265 266 266 266 267 268 268 266 264 263 264 264 263 262 261 260 259 260 260 260 260
281 281 281 281 281 282 282 282 283 283 284 284 284 285 285 286 286 286 287 287 287 287 287 287 287 287 287 287 287 287 288 288 287 288 289 289 289 289 288 286 284 283 282 281 279 279 278 277 276 274 273 271 270 269 268 267 267 268 271 272 269 266 265 264 264 264 265 266 266 267 268 269 268 267 266 264 262 262 262 261 260 260 259 258 258 259 259 260
281 281 282 282 282 282 282 282 283 284 285 285 285 285 286 286 286 287 287 288 287 287 287 287 287 288 288 288 288 288 288 287 288 290 290 289 289 288 287 285 284 283 282 281 280 280 279 277 276 274 273 271 269 268 268 267 268 271 273 270 267 266 267 268 268 268 269 269 269 269 269 270 269 267 266 264 261 259 258 258 257 257 256 256 255 256 257 259
Height
10651 10652 10654 10655 10657 10659 10660 10661 10663 10664 10666 10668 10669 10671 10672 10673 10673 10675 10676 10677 10678 10680 10681 10683 10684 10685 10686 10687 10689 10690 10692 10694 10696 10698 10700 10701 10703 10705 10706 10708 10709 10711 10713 10715 10717 10719 10721 10724 10725 10728 10729 10730 10731 10732 10732 10733 10734 10735 10736 10737 10738 10737 10736 10740 10744 10741 10741 10750 10749 10744 10749 10749 10749 10750 10749 10751 10752 10754 10754 10754 10756 10755 10756 10757 10758 10758 10758 10760
10647 10648 10650 10651 10653 10654 10656 10657 10658 10659 10661 10662 10663 10664 10665 10666 10667 10668 10669 10670 10671 10673 10674 10675 10676 10677 10678 10679 10680 10682 10684 10685 10687 10689 10690 10692 10694 10695 10696 10697 10699 10701 10704 10706 10707 10710 10712 10713 10715 10717 10719 10719 10720 10721 10722 10723 10725 10726 10727 10729 10728 10727 10731 10736 10736 10732 10734 10740 10738 10738 10740 10739 10741 10741 10741 10742 10743 10744 10743 10745 10746 10747 10749 10748 10748 10749 10750 10751
10644 10645 10647 10648 10649 10651 10652 10653 10654 10655 10656 10657 10658 10659 10660 10661 10662 10662 10663 10664 10665 10666 10667 10668 10668 10669 10670 10671 10672 10673 10675 10677 10678 10680 10682 10683 10684 10685 10687 10688 10690 10692 10694 10696 10698 10700 10702 10703 10705 10707 10708 10709 10710 10711 10713 10714 10716 10717 10719 10719 10718 10722 10727 10726 10724 10724 10728 10730 10730 10730 10730 10731 10732 10732 10732 10733 10735 10733 10734 10738 10738 10739 10739 10738 10740 10741 10743 10744
10642 10643 10644 10645 10646 10648 10649 10650 10651 10652 10653 10653 10654 10655 10655 10656 10656 10657 10658 10658 10659 10660 10660 10661 10661 10662 10662 10663 10664 10665 10667 10668 10670 10671 10672 10673 10675 10676 10678 10679 10681 10683 10685 10687 10689 10691 10692 10694 10695 10697 10698 10699 10700 10702 10703 10705 10707 10708 10709 10709 10712 10716 10716 10715 10716 10718 10719 10720 10721 10721 10722 10724 10724 10723 10723 10725 10724 10723 10728 10732 10728 10729 10730 10730 10732 10733 10735 10736
10640 10641 10641 10642 10643 10644 10646 10647 10648 10648 10649 10650 10650 10651 10651 10651 10652 10652 10653 10653 10653 10654 10654 10655 10655 10655 10655 10656 10657 10658 10659 10660 10661 10662 10663 10665 10666 10667 10669 10670 10672 10674 10676 10678 10679 10681 10682 10685 10686 10687 10689 10690 10691 10693 10695 10697 10698 10699 10700 10703 10706 10706 10706 10708 10710 10709 10710 10712 10713 10713 10714 10716 10715 10713 10716 10716 10714 10717 10723 10721 10717 10721 10723 10722 10724 10725 10727 10727
10637 10638 10639 10639 10640 10641 10642 10643 10644 10645 10646 10646 10646 10647 10647 10647 10647 10648 10648 10648 10648 10649 10649 10649 10649 10649 10649 10650 10650 10651 10652 10653 10653 10654 10655 10656 10657 10659 10660 10662 10664 10665 10667 10669 10670 10672 10674 10676 10677 10679 10680 10681 10683 10685 10687 10688 10690 10691 10693 10696 10696 10696 10700 10701 10700 10700 10702 10704 10705 10706 10707 10707 10705 10706 10709 10706 10707 10713 10712 10710 10711 10715 10716 10714 10716 10717 10718 10720
10635 10635 10636 10637 10637 10638 10639 10640 10641 10642 10642 10642 10643 10643 10643 10643 10643 10643 10643 10644 10644 10644 10644 10644 10644 10644 10644 10644 10644 10645 10645 10646 10646 10647 10647 10648 10650 10651 10652 10654 10656 10657 10659 10661 10662 10664 10666 10668 10669 10671 10672 10673 10675 10677 10678 10680 10682 10683 10685 10688 10688 10690 10693 10692 10692 10694 10695 10696 10698 10698 10698 10698 10699 10701 10700 10698 10702 10705 10702 10703 10706 10707 10708 10707 10708 10709 10711 10712
10632 10632 10633 10634 10634 10635 10636 10637 10638 10638 10639 10639 10639 10639 10639 10639 10639 10639 10640 10640 10640 10640 10640 10639 10639 10639 10639 10639 10639 10639 10639 10639 10640 10640 10641 10642 10643 10644 10646 10648 10649 10651 10652 10653 10655 10656 10658 10660 10661 10663 10664 10666 10667 10669 10670 10672 10674 10676 10679 10680 10681 10683 10684 10684 10685 10687 10687 10689 10690 10689 10690 10692 10692 10693 10692 10692 10696 10695 10695 10697 10698 10699 10700 10699 10701 10702 10703 10704
10629 10629 10630 10631 10631 10632 10633 10634 10634 10634 10635 10635 10635 10635 10635 10635 10636 10636 10636 10637 10637 10637 10636 10636 10636 10635 10635 10635 10634 10634 10634 10634 10635 10635 10636 10637 10638 10639 10640 10642 10643 10644 10645 10647 10648 10650 10651 10653 10654 10656 10657 10658 10660 10662 10662 10665 10667 10670 10672 10672 10673 10676 10677 10678 10678 10680 10680 10682 10682 10681 10684 10684 10685 10686 10685 10688 10689 10687 10688 10690 10691 10693 10693 10693 10694 10695 10697 10697
10626 10626 10627 10627 10628 10629 10629 10630 10630 10631 10631 10631 10632 10632 10632 10632 10633 10633 10633 10634 10634 10634 10633 10632 10632 10632 10631 10631 10631 10630 10630 10630 10630 10631 10631 10632 10633 10634 10635 10637 10638 10638 10640 10641 10642 10643 10645 10646 10648 10649 10650 10652 10654 10655 10656 10659 10662 10663 10664 10665 10667 10669 10670 10671 10672 10673 10673 10674 10674 10675 10677 10677 10678 10678 10679 10684 10682 10679 10682 10683 10684 10686 10686 10687 10688 10689 10690 10691
10622 10623 10623 10624 10624 10625 10626 10626 10627 10627 10627 10628 10628 10628 10629 10629 10630 10630 10630 10631 10631 10631 10630 10630 10629 10629 10628 10628 10628 10627 10627 10627 10627 10627 10628 10628 10629 10630 10631 10632 10633 10634 10635 10635 10637 10638 10639 10641 10642 10643 10645 10646 10648 10649 10651 10654 10655 10656 10658 10659 10661 10662 10664 10665 10666 10666 10666 10668 10667 10668 10670 10671 10672 10671 10675 10680 10673 10672 10676 10677 10678 10679 10680 10682 10682 10683 10684 10685
10619 10619 10620 10620 10621 10621 10622 10623 10623 10624 10624 10624 10625 10625 10625 10626 10626 10627 10627 10628 10628 10628 10627 10627 10627 10626 10626 10625 10625 10625 10624 10624 10624 10624 10625 10625 10626 10626 10627 10628 10629 10629 10630 10631 10632 10633 10634 10636 10637 10638 10640 10641 10644 10645 10645 10647 10649 10651 10652 10653 10655 10656 10657 10658 10660 10660 10661 10663 10661 10663 10665 10665 10665 10664 10672 10674 10665 10668 10671 10670 10672 10673 10675 10676 10676 10677 10678 10680
10615 10616 10616 10616 10617 10617 10618 10619 10620 10620 10621 10621 10621 10621 10622 10622 10623 10624 10624 10625 10625 10625 10624 10624 10624 10624 10624 10623 10623 10623 10622 10622 10622 10622 10622 10622 10623 10623 10624 10625 10625 10626 10626 10627 10628 10629 10630 10631 10633 10634 10635 10637 10640 10639 10640 10643 10644 10646 10646 10648 10650 10650 10651 10653 10655 10655 10656 10658 10656 10658 10660 10659 10659 10661 10668 10666 10660 10663 10664 10665 10667 10667 10669 10670 10671 10672 10673 10675
10611 10612 10612 10613 10613 10614 10614 10615 10616 10616 10617 10617 10617 10618 10618 10619 10620 10620 10621 10621 10622 10621 10621 10621 10621 10621 10621 10621 10621 10621 10620 10620 10620 10620 10620 10620 10621 10621 10621 10622 10622 10623 10624 10624 10625 10626 10627 10628 10629 10630 10632 10634 10635 10635 10637 10639 10639 10641 10642 10643 10644 10644 10646 10650 10650 10649 10651 10653 10651 10653 10655 10652 10655 10660 10662 10659 10657 10658 10659 10660 10662 10662 10664 10665 10665 10666 10668 10670
10607 10608 10608 10609 10609 10610 10610 10611 10612 10612 10613 10613 10614 10614 10615 10616 10616 10617 10618 10618 10618 10618 10618 10618 10618 10618 10619 10619 10618 10618 10618 10618 10618 10618 10618 10618 10619 10619 10619 10619 10620 10620 10621 10622 10622 10623 10624 10625 10626 10627 10629 10630 10631 10632 10633 10634 10635 10637 10637 10638 10640 10639 10642 10647 10644 10644 10648 10648 10646 10649 10649 10646 10652 10659 10655 10653 10654 10653 10654 10656 10656 10658 10658 10659 10660 10661 10663 10665
10603 10604 10604 10605 10605 10606 10606 10607 10608 10608 10609 10609 10610 10610 10611 10612 10613 10613 10614 10615 10615 10615 10615 10615 10615 10615 10616 10616 10616 10616 10616 10616 10615 10616 10616 10616 10617 10617 10617 10617 10618 10618 10618 10619 10620 10621 10622 10622 10623 10624 10626 10627 10628 10629 10629 10631 10631 10633 10633 10634 10636 10634 10637 10642 10639 10639 10643 10643 10642 10643 10644 10642 10649 10656 10650 10647 10651 10649 10650 10652 10651 10653 10653 10653 10656 10656 10658 10661
10600 10600 10600 10600 10601 10602 10602 10603 10604 10604 10605 10605 10606 10606 10607 10608 10608 10609 10610 10610 10611 10611 10611 10611 10611 10612 10612 10612 10613 10613 10613 10613 10613 10613 10614 10614 10614 10614 10615 10615 10615 10615 10616 10617 10617 10618 10619 10620 10621 10622 10623 10624 10625 10626 10627 10627 10627 10630 10630 10630 10632 10630 10631 10637 10636 10636 10638 10638 10638 10638 10640 10639 10643 10652 10646 10641 10647 10647 10646 10647 10647 10648 10648 10649 10651 10652 10653 10655
10596 10597 10597 10597 10597 10598 10598 10599 10599 10600 10600 10601 10602 10602 10603 10603 10604 10605 10605 10606 10606 10607 10607 10607 10607 10608 10609 10608 10609 10609 10610 10610 10610 10610 10611 10611 10611 10612 10612 10612 10613 10613 10613 10614 10615 10616 10616 10617 10618 10619 10620 10621 10621 10622 10622 10623 10625 10627 10626 10625 10627 10627 10626 10630 10634 10634 10631 10632 10634 10635 10636 10635 10639 10646 10643 10639 10642 10643 10642 10643 10643 10643 10644 10646 10646 10647 10648 10651
10593 10593 10593 10594 10594 10594 10594 10595 10595 10596 10596 10597 10597 10598 10599 10599 10600 10600 10601 10601 10602 10603 10603 10603 10603 10604 10604 10604 10605 10605 10606 10606 10606 10607 10607 10608 10608 10609 10609 10609 10610 10610 10610 10611 10612 10613 10613 10614 10615 10615 10616 10617 10618 10617 10617 10619 10621 10621 10621 10621 10622 10624 10622 10623 10632 10633 10625 10626 10631 10631 10632 10632 10634 10639 10639 10637 10638 10639 10638 10637 10638 10639 10640 10641 10640 10641 10644 10646
10590 10590 10590 10590 10590 10590 10591 10591 10591 10592 10592 10593 10593 10594 10594 10595 10595 10596 10596 10597 10598 10598 10599 10599 10599 10600 10600 10600 10601 10601 10602 10602 10602 10603 10603 10603 10604 10605 10605 10606 10606 10607 10607 10608 10609 10609 10610 10610 10610 10611 10613 10614 10613 10612 10615 10616 10616 10616 10617 10616 10617 10619 10617 10619 10629 10627 10620 10623 10627 10627 10628 10628 10629 10632 10635 10636 10635 10634 10632 10632 10634 10635 10635 10635 10635 10637 10639 10641
10587 10587 10587 10587 10587 10587 10587 10587 10588 10588 10588 10588 10589 10589 10590 10590 10591 10591 10592 10593 10593 10594 10595 10594 10594 10595 10596 10596 10596 10597 10597 10598 10598 10598 10598 10599 10599 10600 10601 10602 10602 10602 10603 10604 10604 10604 10605 10605 10606 10608 10609 10609 10608 10609 10611 10611 10611 10612 10612 10612 10613 10613 10613 10617 10623 10620 10617 10620 10621 10622 10625 10624 10623 10626 10630 10632 10631 10629 10626 10627 10629 10629 10630 10630 10630 10632 10633 10636
10584 10584 10584 10584 10584 10584 10584 10584 10584 10584 10585 10585 10585 10585 10585 10586 10586 10586 10587 10588 10588 10590 10590 10590 10590 10591 10591 10592 10592 10592 10592 10593 10593 10593 10594 10594 10594 10596 10596 10597 10597 10598 10599 10599 10599 10600 10600 10600 10603 10604 10603 10604 10605 10605 10606 10606 10606 10606 10606 10608 10607 10608 10610 10612 10615 10615 10614 10615 10615 10618 10620 10618 10618 10621 10624 10627 10627 10624 10621 10623 10625 10624 10625 10625 10624 10626 10628 10631
10581 10581 10581 10581 10581 10581 10581 10581 10581 10581 10581 10581 10581 10581 10581 10582 10582 10582 10583 10583 10584 10585 10586 10585 10586 10586 10587 10588 10587 10587 10588 10588 10588 10589 10589 10589 10590 10591 10591 10592 10592 10594 10594 10593 10595 10595 10594 10596 10599 10599 10598 10600 10601 10600 10601 10601 10601 10601 10602 10603 10601 10604 10606 10605 10609 10611 10608 10609 10610 10613 10615 10612 10613 10616 10619 10621 10621 10620 10617 10618 10620 10620 10620 10619 10619 10621 10623 10625
10578 10578 10578 10578 10578 10578 10578 10578 10578 10578 10578 10578 10578 10578 10578 10578 10578 10578 10578 10579 10580 10581 10581 10581 10581 10582 10583 10584 10583 10583 10583 10583 10584 10584 10584 10585 10586 10586 10587 10587 10587 10588 10589 10589 10590 10589 10590 10593 10594 10594 10594 10596 10596 10596 10596 10595 10596 10596 10597 10597 10596 10600 10601 10599 10605 10606 10601 10604 10605 10607 10609 10606 10607 10612 10613 10614 10615 10615 10614 10614 10615 10615 10614 10614 10614 10616 10617 10619
10574 10574 10575 10575 10575 10575 10575 10575 10575 10575 10575 10574 10574 10574 10574 10574 10574 10575 10575 10575 10575 10576 10577 10576 10577 10577 10578 10579 10579 10578 10578 10579 10579 10579 10579 10580 10581 10581 10582 10582 10582 10583 10584 10584 10584 10583 10586 10589 10588 10589 10590 10590 10591 10591 10591 10591 10591 10591 10592 10592 10591 10595 10596 10594 10599 10599 10595 10599 10600 10601 10602 10600 10604 10607 10605 10608 10609 10609 10610 10610 10610 10609 10609 10610 10610 10611 10612 10614
10571 10571 10571 10571 10571 10571 10571 10571 10571 10571 10571 10571 10571 10570 10570 10571 10571 10571 10571 10571 10570 10571 10572 10572 10573 10573 10573 10574 10573 10573 10574 10574 10574 10575 10575 10575 10575 10576 10576 10577 10576 10577 10579 10578 10577 10578 10582 10583 10582 10584 10585 10584 10585 10585 10586 10586 10584 10585 10588 10588 10586 10589 10591 10590 10593 10592 10591 10594 10596 10596 10595 10595 10601 10599 10598 10603 10603 10603 10605 10605 10605 10605 10605 10605 10605 10606 10606 10608
10567 10567 10567 10567 10567 10567 10567 10567 10567 10566 10566 10566 10566 10566 10566 10567 10567 10567 10567 10566 10566 10567 10568 10568 10568 10568 10568 10568 10568 10568 10568 10568 10569 10569 10570 10570 10570 10570 10570 10571 10570 10571 10573 10571 10571 10573 10575 10576 10576 10577 10578 10579 10579 10579 10581 10580 10577 10579 10582 10582 10581 10583 10585 10585 10585 10585 10586 10589 10590 10590 10589 10591 10593 10592 10594 10598 10596 10597 10600 10599 10600 10600 10600 10600 10599 10600 10601 10602
10563 10563 10563 10563 10563 10563 10562 10562 10562 10562 10562 10562 10562 10562 10562 10562 10563 10563 10562 10561 10561 10563 10563 10563 10563 10563 10563 10563 10562 10563 10563 10563 10564 10564 10564 10564 10564 10564 10565 10565 10565 10565 10566 10565 10566 10568 10567 10569 10570 10570 10571 10572 10572 10572 10573 10572 10572 10574 10575 10576 10576 10577 10578 10579 10579 10579 10580 10583 10584 10584 10583 10584 10584 10584 10590 10592 10589 10591 10593 10593 10595 10595 10594 10594 10594 10594 10595 10596
10559 10559 10559 10559 10559 10558 10558 10558 10557 10557 10557 10557 10557 10557 10558 10558 10558 10557 10556 10556 10557 10558 10558 10558 10558 10558 10558 10557 10557 10557 10557 10557 10557 10557 10558 10558 10558 10558 10558 10559 10559 10559 10559 10558 10560 10561 10561 10562 10564 10564 10564 10565 10566 10565 10565 10565 10566 10567 10567 10569 10571 10571 10571 10571 10572 10571 10572 10576 10577 10575 10578 10578 10576 10577 10582 10585 10584 10584 10585 10587 10588 10588 10588 10589 10588 10589 10589 10590
10554 10554 10554 10554 10554 10553 10553 10553 10553 10553 10552 10552 10552 10552 10552 10552 10552 10551 10551 10552 10552 10551 10552 10552 10553 10552 10552 10552 10551 10550 10551 10551 10551 10551 10552 10552 10552 10552 10552 10552 10552 10552 10552 10552 10553 10554 10555 10555 10556 10556 10557 10558 10558 10558 10559 10559 10560 10560 10561 10563 10564 10564 10564 10563 10563 10563 10565 10570 10568 10566 10571 10571 10568 10569 10571 10577 10580 10577 10577 10580 10582 10582 10582 10583 10583 10583 10583 10584
10549 10549 10549 10549 10549 10548 10548 10548 10547 10547 10547 10547 10547 10546 10547 10546 10545 10545 10545 10545 10545 10545 10545 10546 10546 10547 10547 10546 10545 10544 10545 10545 10545 10545 10545 10545 10546 10546 10546 10545 10545 10545 10545 10545 10546 10547 10547 10547 10548 10549 10550 10551 10551 10551 10552 10552 10553 10554 10555 10556 10557 10556 10555 10555 10555 10555 10558 10561 10558 10558 10561 10560 10561 10561 10560 10569 10575 10570 10568 10572 10575 10576 10575 10576 10577 10577 10576 10577
10543 10543 10543 10543 10543 10542 10542 10542 10542 10541 10541 10541 10540 10540 10540 10539 10538 10539 10538 10537 10538 10537 10538 10538 10539 10540 10540 10540 10538 10537 10538 10537 10537 10538 10538 10539 10539 10539 10539 10537 10537 10538 10537 10537 10539 10540 10540 10540 10540 10540 10542 10543 10543 10544 10544 10545 10544 10546 10548 10549 10549 10547 10545 10547 10548 10546 10549 10550 10548 10550 10549 10551 10557 10555 10552 10560 10566 10563 10561 10563 10567 10568 10567 10568 10569 10569 10569 10570
10538 10537 10537 10537 10537 10536 10536 10536 10536 10535 10534 10534 10534 10534 10533 10532 10532 10532 10530 10530 10530 10530 10531 10531 10531 10531 10532 10533 10531 10529 10530 10530 10528 10529 10530 10532 10532 10531 10529 10528 10529 10530 10529 10529 10532 10534 10533 10533 10532 10531 10533 10535 10535 10536 10537 10537 10536 10538 10541 10541 10540 10538 10536 10540 10539 10536 10538 10538 10538 10540 10540 10546 10553 10549 10546 10550 10555 10557 10556 10555 10557 10559 10559 10559 10560 10561 10562 10562
10532 10532 10531 10531 10530 10530 10530 10530 10529 10529 10528 10527 10527 10527 10526 10525 10526 10525 10524 10523 10523 10523 10524 10523 10523 10523 10523 10524 10523 10521 10522 10522 10520 10520 10523 10524 10523 10522 10519 10518 10521 10523 10522 10522 10524 10525 10525 10524 10521 10522 10525 10526 10527 10528 10530 10531 10529 10530 10532 10531 10532 10530 10525 10528 10529 10527 10527 10526 10528 10533 10536 10543 10546 10542 10542 10542 10544 10549 10549 10547 10548 10549 10549 10551 10552 10552 10553 10554
10526 10525 10525 10524 10524 10523 10523 10523 10522 10522 10521 10521 10520 10520 10519 10519 10519 10518 10518 10517 10515 10515 10516 10515 10515 10515 10514 10515 10514 10512 10514 10514 10512 10512 10515 10516 10513 10512 10510 10509 10513 10515 10514 10516 10515 10515 10517 10515 10510 10512 10516 10515 10517 10520 10522 10524 10522 10520 10521 10522 10524 10521 10514 10516 10520 10519 10518 10518 10523 10528 10530 10536 10536 10534 10537 10536 10534 10537 10538 10538 10537 10538 10540 10542 10543 10544 10544 10545
10519 10519 10518 10517 10517 10517 10517 10516 10515 10515 10514 10514 10513 10512 10512 10512 10512 10511 10510 10510 10509 10508 10508 10508 10508 10507 10507 10507 10504 10504 10506 10506 10505 10504 10505 10507 10503 10501 10502 10501 10503 10505 10506 10507 10505 10504 10506 10505 10500 10503 10506 10503 10506 10511 10513 10515 10514 10511 10512 10513 10512 10509 10506 10507 10511 10511 10508 10509 10517 10520 10521 10527 10527 10526 10530 10528 10525 10524 10524 10527 10527 10528 10531 10532 10533 10535 10535 10536
10513 10512 10512 10511 10510 10510 10510 10510 10509 10508 10508 10507 10506 10506 10505 10505 10505 10504 10503 10503 10502 10501 10500 10500 10500 10498 10499 10500 10496 10496 10496 10495 10498 10498 10495 10495 10495 10493 10494 10495 10494 10495 10497 10497 10495 10493 10495 10495 10491 10493 10495 10493 10495 10501 10503 10505 10506 10503 10503 10502 10499 10499 10500 10499 10499 10500 10500 10500 10507 10510 10513 10519 10520 10520 10520 10516 10516 10515 10512 10516 10520 10520 10522 10524 10525 10526 10526 10528
10507 10507 10506 10505 10504 10504 10504 10504 10504 10503 10502 10501 10500 10500 10499 10499 10498 10498 10497 10497 10495 10495 10494 10493 10493 10491 10490 10491 10489 10489 10488 10485 10489 10491 10485 10484 10487 10486 10485 10485 10486 10486 10486 10487 10484 10482 10484 10485 10483 10483 10485 10484 10486 10491 10492 10493 10495 10492 10491 10490 10488 10490 10492 10489 10487 10489 10490 10490 10496 10501 10504 10508 10513 10515 10511 10506 10506 10506 10503 10505 10509 10511 10513 10514 10516 10518 10518 10519
10503 10502 10501 10500 10499 10498 10498 10498 10498 10497 10496 10496 10495 10494 10494 10493 10493 10492 10491 10491 10489 10488 10488 10486 10486 10485 10483 10483 10482 10482 10482 10479 10478 10481 10478 10476 10479 10478 10474 10475 10478 10477 10475 10475 10472 10471 10473 10476 10477 10476 10475 10475 10477 10479 10480 10480 10480 10479 10479 10480 10480 10480 10481 10479 10475 10475 10478 10480 10484 10489 10494 10499 10504 10505 10502 10497 10495 10495 10495 10496 10498 10500 10503 10504 10506 10508 10509 10509
10498 10497 10496 10495 10494 10493 10493 10493 10492 10492 10491 10491 10491 10490 10489 10488 10487 10486 10485 10485 10484 10482 10482 10480 10480 10479 10477 10476 10475 10474 10475 10473 10470 10471 10471 10469 10469 10470 10467 10467 10468 10466 10465 10464 10461 10460 10463 10466 10470 10469 10465 10466 10468 10467 10467 10468 10466 10465 10467 10470 10471 10470 10468 10465 10464 10465 10467 10468 10471 10475 10482 10492 10497 10493 10490 10489 10487 10485 10484 10486 10488 10489 10491 10494 10497 10498 10499 10500
10493 10492 10491 10490 10490 10489 10488 10488 10487 10487 10486 10486 10485 10485 10484 10483 10483 10481 10479 10479 10478 10477 10476 10474 10473 10472 10471 10469 10468 10467 10466 10465 10463 10462 10462 10461 10460 10462 10462 10459 10455 10453 10456 10455 10450 10450 10453 10454 10459 10461 10458 10457 10459 10457 10456 10456 10454 10452 10453 10457 10458 10456 10454 10452 10455 10460 10457 10453 10458 10462 10468 10484 10488 10479 10477 10479 10479 10477 10475 10475 10477 10479 10481 10483 10485 10487 10488 10489
10488 10488 10487 10486 10486 10485 10484 10483 10483 10482 10481 10481 10480 10480 10479 10478 10477 10476 10475 10473 10473 10472 10470 10469 10467 10466 10465 10463 10460 10459 10459 10457 10455 10453 10452 10452 10450 10453 10455 10450 10445 10443 10445 10446 10441 10440 10443 10442 10446 10451 10450 10449 10449 10448 10446 10445 10443 10439 10438 10442 10443 10443 10444 10442 10443 10449 10446 10443 10449 10450 10452 10469 10474 10466 10465 10468 10470 10472 10469 10464 10464 10467 10471 10472 10471 10474 10476 10476
10484 10484 10483 10482 10481 10480 10480 10479 10478 10477 10476 10476 10475 10475 10474 10473 10472 10471 10470 10468 10467 10466 10464 10463 10462 10459 10458 10457 10453 10452 10451 10450 10448 10444 10443 10442 10441 10443 10444 10440 10437 10433 10433 10436 10432 10431 10433 10432 10433 10439 10441 10440 10440 10438 10437 10434 10430 10427 10427 10429 10430 10431 10433 10430 10429 10434 10434 10435 10442 10437 10436 10453 10459 10453 10453 10455 10459 10463 10459 10456 10455 10454 10457 10460 10459 10460 10461 10464
10480 10479 10479 10478 10477 10476 10475 10474 10474 10473 10472 10470 10469 10469 10468 10468 10467 10465 10465 10463 10461 10460 10458 10456 10455 10452 10451 10450 10446 10444 10443 10443 10441 10437 10434 10432 10432 10434 10433 10431 10428 10422 10423 10426 10422 10420 10423 10422 10422 10426 10429 10431 10431 10428 10426 10422 10416 10415 10417 10419 10419 10419 10419 10418 10418 10419 10418 10425 10431 10422 10421 10438 10443 10439 10443 10444 10445 10449 10448 10447 10448 10444 10443 10448 10448 10447 10447 10451
10476 10475 10474 10473 10472 10471 10470 10469 10469 10468 10467 10465 10464 10462 10462 10461 10460 10458 10458 10457 10455 10453 10452 10450 10448 10446 10444 10442 10440 10437 10435 10434 10433 10430 10427 10423 10422 10423 10423 10422 10418 10412 10414 10417 10412 10408 10411 10411 10411 10414 10417 10421 10422 10418 10413 10408 10404 10406 10410 10410 10409 10408 10407 10407 10406 10403 10405 10413 10415 10406 10407 10421 10428 10427 10431 10433 10432 10435 10437 10437 10438 10436 10434 10434 10434 10435 10437 10437
10471 10470 10469 10468 10467 10465 10464 10463 10462 10462 10461 10459 10458 10456 10455 10455 10454 10451 10450 10449 10448 10445 10444 10443 10441 10439 10437 10435 10433 10430 10427 10426 10424 10423 10420 10415 10413 10413 10414 10414 10409 10403 10405 10406 10401 10399 10401 10401 10400 10401 10405 10410 10412 10407 10401 10395 10392 10395 10401 10402 10401 10400 10398 10395 10391 10392 10398 10397 10395 10394 10393 10401 10413 10417 10419 10421 10422 10424 10426 10426 10428 10428 10426 10422 10420 10423 10425 10425
10466 10465 10463 10463 10461 10460 10459 10456 10455 10455 10454 10453 10452 10450 10448 10447 10447 10445 10442 10441 10440 10438 10436 10435 10433 10431 10429 10427 10425 10423 10420 10417 10416 10414 10411 10408 10405 10402 10403 10404 10399 10394 10395 10393 10389 10390 10391 10391 10390 10390 10393 10399 10399 10396 10391 10384 10381 10385 10390 10394 10394 10392 10388 10382 10378 10383 10386 10378 10377 10386 10382 10380 10395 10407 10409 10410 10410 10411 10413 10413 10415 10417 10417 10413 10411 10410 10411 10412
10460 10459 10458 10457 10455 10454 10453 10452 10450 10448 10447 10446 10445 10443 10442 10440 10439 10438 10436 10433 10432 10430 10429 10427 10424 10423 10422 10419 10417 10415 10412 10409 10408 10405 10402 10399 10397 10394 10392 10392 10389 10386 10385 10382 10380 10380 10380 10382 10380 10378 10383 10388 10387 10385 10381 10374 10371 10374 10379 10384 10385 10381 10377 10372 10369 10370 10369 10362 10364 10373 10371 10368 10379 10393 10399 10400 10395 10393 10395 10396 10398 10402 10404 10403 10401 10400 10399 10398
10455 10454 10452 10451 10450 10448 10447 10446 10444 10443 10442 10440 10438 10437 10435 10433 10432 10430 10428 10426 10424 10422 10421 10419 10416 10415 10413 10410 10408 10406 10404 10402 10399 10395 10393 10391 10389 10385 10382 10380 10378 10376 10375 10373 10371 10369 10370 10372 10369 10367 10373 10379 10377 10373 10368 10363 10360 10363 10370 10375 10375 10371 10366 10361 10358 10355 10352 10349 10352 10356 10358 10360 10369 10378 10386 10387 10378 10372 10374 10380 10384 10388 10392 10391 10389 10390 10391 10389
10449 10447 10446 10445 10444 10442 10440 10439 10438 10436 10436 10434 10431 10430 10428 10426 10424 10422 10420 10419 10417 10414 10413 10411 10409 10407 10405 10402 10400 10398 10396 10393 10390 10387 10385 10383 10380 10376 10373 10371 10369 10366 10365 10364 10361 10358 10360 10362 10360 10357 10362 10370 10368 10359 10354 10352 10350 10353 10363 10369 10365 10357 10350 10346 10344 10342 10340 10339 10342 10342 10341 10351 10364 10366 10367 10370 10366 10360 10362 10370 10374 10375 10379 10380 10378 10378 10381 10381
10442 10441 10440 10439 10438 10436 10434 10432 10430 10428 10428 10427 10425 10423 10421 10418 10416 10414 10412 10410 10408 10406 10405 10403 10400 10399 10397 10394 10392 10391 10388 10384 10380 10379 10377 10374 10371 10368 10364 10362 10360 10357 10356 10354 10352 10350 10349 10351 10350 10345 10348 10361 10359 10344 10340 10341 10339 10347 10361 10361 10348 10336 10332 10332 10333 10332 10331 10331 10332 10331 10331 10342 10354 10352 10349 10353 10356 10352 10353 10358 10360 10362 10365 10367 10367 10367 10368 10371
10436 10434 10433 10432 10431 10429 10426 10426 10424 10421 10420 10419 10417 10416 10413 10411 10409 10406 10403 10401 10399 10397 10396 10394 10392 10390 10388 10385 10383 10383 10380 10375 10373 10371 10368 10365 10362 10359 10356 10353 10350 10349 10346 10343 10342 10341 10339 10339 10339 10333 10334 10349 10348 10332 10326 10328 10332 10348 10355 10342 10327 10322 10321 10322 10323 10324 10323 10320 10319 10321 10324 10331 10338 10338 10335 10337 10341 10341 10342 10345 10347 10349 10351 10352 10354 10356 10358 10361